Fort Myers, FL

11:33 PM EDT on May 26, 2017 (GMT -0400)
Page

Weather History for KFMY - May, 2014

Change the Weather History Date:

Tuesday, May 20, 2014

  Actual Average Record
Temperature  
Mean Temperature 78 °F 80 °F  
Max Temperature 91 °F 90 °F 97 °F (2017)
Min Temperature 65 °F 70 °F 55 °F (1917)
Degree Days  
Heating Degree Days 0 0  
Month to date heating degree days 0 0  
Since 1 July heating degree days 178 287  
Cooling Degree Days 13 15  
Month to date cooling degree days 282 262  
Year to date cooling degree days 1009 892  
Growing Degree Days 26 (Base 50)    
Moisture  
Dew Point 61 °F    
Average Humidity 60    
Maximum Humidity 93    
Minimum Humidity 36    
Precipitation  
Precipitation 0.00 in 0.09 in 1.66 in (1932)
Month to date precipitation 1.47 1.28  
Year to date precipitation 9.03 10.43  
Sea Level Pressure  
Sea Level Pressure 30.15 in    
Wind  
Wind Speed 9 mph (ENE)    
Max Wind Speed 18 mph    
Max Gust Speed 25 mph    
Visibility 10 miles    
Events      
T = Trace of Precipitation, MM = Missing Value Source: NWS Daily Summary

Daily Weather History Graph

Daily Weather History Graph

Search for Another Location

Airport or City:

Trip Planner

Search our weather history database for the weather conditions in past years. The results will help you decide how hot, cold, wet, or windy it might be!

Date:

Astronomy

May. 20, 2014 Rise Set
Actual Time 6:37 AM EDT 8:10 PM EDT
Civil Twilight 6:12 AM EDT 8:35 PM EDT
Nautical Twilight 5:42 AM EDT 9:06 PM EDT
Astronomical Twilight 5:10 AM EDT 9:37 PM EDT
Moon 12:51 AM EDT (5/20) 12:28 PM EDT (5/20)
Length of Visible Light 14h 23m
Length of Day
13h 32m
Waning Gibbous, 60% of the Moon is Illuminated
May 20
Waning Gibbous
May 21
Last Quarter
May 28
New
Jun 5
First Quarter
Jun 13
Full

Hourly Weather History & Observations

Time (EDT) Temp. Heat Index Dew Point Humidity Pressure Visibility Wind Dir Wind Speed Gust Speed Precip Events Conditions
12:53 AM 71.1 °F - 62.1 °F 73% 30.15 in 10.0 mi East 6.9 mph - N/A   Clear
1:53 AM 70.0 °F - 63.0 °F 78% 30.14 in 10.0 mi ENE 5.8 mph - N/A   Clear
3:53 AM 66.0 °F - 62.1 °F 87% 30.13 in 10.0 mi ENE 5.8 mph - N/A   Clear
5:53 AM 64.9 °F - 62.1 °F 90% 30.14 in 10.0 mi ENE 4.6 mph - N/A   Clear
6:53 AM 66.0 °F - 63.0 °F 90% 30.15 in 8.0 mi ENE 5.8 mph - N/A   Clear
8:53 AM 73.9 °F - 64.9 °F 73% 30.18 in 10.0 mi ENE 6.9 mph - N/A   Clear
9:53 AM 79.0 °F - 64.9 °F 62% 30.19 in 10.0 mi East 9.2 mph - N/A   Clear
10:53 AM 82.0 °F 83.1 °F 63.0 °F 52% 30.19 in 10.0 mi East 11.5 mph 18.4 mph N/A   Partly Cloudy
11:53 AM 84.9 °F 85.0 °F 61.0 °F 44% 30.18 in 10.0 mi East 11.5 mph - N/A   Partly Cloudy
12:53 PM 87.1 °F 86.7 °F 60.1 °F 40% 30.17 in 10.0 mi NE 12.7 mph 18.4 mph N/A   Scattered Clouds
1:53 PM 87.1 °F 86.1 °F 57.9 °F 37% 30.15 in 10.0 mi ENE 15.0 mph 19.6 mph N/A   Mostly Cloudy
2:53 PM 89.1 °F 88.2 °F 59.0 °F 36% 30.14 in 10.0 mi East 12.7 mph - N/A   Partly Cloudy
3:53 PM 86.0 °F 84.9 °F 57.0 °F 37% 30.12 in 10.0 mi ENE 12.7 mph - N/A   Mostly Cloudy
5:53 PM 87.1 °F 86.1 °F 57.9 °F 37% 30.11 in 10.0 mi ENE 12.7 mph - N/A   Partly Cloudy
6:53 PM 84.9 °F 84.2 °F 57.9 °F 40% 30.10 in 10.0 mi East 9.2 mph - N/A   Clear
7:53 PM 82.0 °F 82.7 °F 61.0 °F 49% 30.12 in 10.0 mi East 10.4 mph - N/A   Clear
8:53 PM 78.1 °F - 64.0 °F 62% 30.14 in 10.0 mi East 11.5 mph - N/A   Clear
9:53 PM 75.9 °F - 63.0 °F 64% 30.15 in 10.0 mi East 8.1 mph - N/A   Clear
10:53 PM 73.9 °F - 63.0 °F 68% 30.17 in 10.0 mi East 8.1 mph - N/A   Clear
11:53 PM 72.0 °F - 63.0 °F 73% 30.17 in 10.0 mi ENE 4.6 mph - N/A   Clear